Location: Duac?
(36.9744°N, 30.6500°E)
Time: 13:26:01
(UTC+00:00)

SeaSat 1 - Pass Details

Date: 05 August 2024
Orbit: 739 x 743 km, 108.0° (Epoch: 11 September)

Event Time Altitude Azimuth Distance (km) Brightness Sun altitude
Exits shadow 23:32:06 21° 324° (NW) 1,610 4.4 -32.5°
Drops below altitude 10° 23:33:47 10° 329° (NNW) 2,258 5.3 -32.3°
Sets 23:36:04 0° 332° (NNW) 3,186 6.1 -32.1°
